Simultaneous Nadir Overpasses (SNOs) Predictions

Prediction of SNOs between NOAA-20 and AQUA Satellite Orbit:

Table of predicted SNOs for the next 14.0 days since TLE Epoch: 1/7/2023
Index Date (NOAA-20) Time (NOAA-20) Lat,Lon (NOAA-20) SZA (NOAA-20 ) Date (AQUA) Time (AQUA) Lat,Lon (AQUA) SZA (AQUA ) Distance(km) Time Diff (sec)
1 01/08/2023 21:58:48 79.64, 108.27 114.27 01/08/2023 21:59:30 79.64, 108.30 114.23 0.73 42
2 01/08/2023 22:49:26 -79.86, -82.36 66.13 01/08/2023 22:48:50 -79.87, -82.30 66.11 1.31 36
3 01/11/2023 13:24:56 -79.75, 57.73 66.26 01/11/2023 13:25:19 -79.75, 57.67 66.27 1.20 23
4 01/11/2023 14:15:35 79.92,-133.33 113.43 01/11/2023 14:14:39 79.92,-133.32 113.47 0.24 56
5 01/14/2023 04:51:05 79.80, 6.70 113.26 01/14/2023 04:51:07 79.80, 6.67 113.26 0.54 2
6 01/14/2023 05:40:17 -81.31,-153.00 71.84 01/14/2023 05:39:03 -81.75,-153.03 71.63 49.45 74
7 01/16/2023 19:26:36 79.62, 146.16 113.15 01/16/2023 19:27:35 79.62, 146.18 113.11 0.44 59
8 01/16/2023 20:17:14 -79.85, -44.43 67.26 01/16/2023 20:16:55 -79.85, -44.42 67.25 0.23 19
9 01/19/2023 10:52:46 -79.66, 95.01 67.41 01/19/2023 10:53:23 -79.67, 95.12 67.46 2.31 37



Historial Predications of SNOs between NOAA-20 and AQUA
